Location: Anjeux
(47.8815°N, 6.2076°E)
Time: 02:40:57
(UTC+00:00)

First-Move - Pass Details

Date: 08 December 2021
Orbit: 574 x 664 km, 97.6° (Epoch: 22 January)

Event Time Altitude Azimuth Distance (km) Brightness Sun altitude
Rises 04:55:15 0° 6° (N) 3,011 ? -21.9°
Reaches altitude 10° 04:57:37 10° 357° (N) 2,098 ? -21.5°
Enters shadow 04:58:19 14° 353° (N) 1,847 ? -21.3°
